Wind_Speed
20 20 20 21 21 21 21 22 22 23 23 23 23 22 22 21 21 21 21 21 21 21 21 21 21 22 22 21 20 20 20 21 21 21 21 21 22 22 23 23 23 23 23
20 21 21 21 21 21 22 22 22 23 23 23 23 23 23 23 23 22 23 22 22 22 22 22 22 22 22 22 22 22 22 22 22 22 22 22 22 23 23 24 24 23 24
21 22 22 23 22 22 23 23 24 24 24 25 25 24 25 25 24 24 24 24 24 24 23 23 23 23 23 23 23 23 23 23 23 23 23 23 23 23 24 25 25 25 25
22 23 24 24 24 24 25 25 25 25 25 25 26 26 26 26 26 26 26 26 25 25 25 25 25 24 24 24 23 23 23 24 24 25 25 25 25 25 25 25 25 25 25
23 24 25 25 25 26 26 26 27 26 26 26 27 27 27 28 27 27 27 27 26 26 26 26 26 26 26 25 25 24 24 24 25 26 26 26 27 27 27 27 27 27 27
25 25 26 26 26 27 28 28 28 28 28 28 27 27 28 29 29 29 29 28 27 27 27 27 27 26 26 26 26 26 26 25 26 27 27 27 27 27 28 28 28 28 27
26 26 27 27 27 28 29 29 29 29 29 29 29 29 29 30 29 30 31 30 29 28 28 28 27 27 27 27 26 26 27 27 27 27 27 28 28 29 29 29 28 28 28
27 28 28 29 29 29 30 30 30 31 30 29 29 29 29 30 30 30 29 29 29 28 28 28 28 29 28 28 28 28 28 28 28 28 28 28 29 29 30 30 30 29 29
28 29 30 30 31 31 30 30 31 31 32 32 31 30 30 30 31 30 29 28 28 28 29 29 29 30 30 29 29 29 29 29 28 28 29 29 30 30 30 30 30 30 30
29 30 30 31 31 32 32 32 32 33 33 32 32 32 32 30 30 30 30 29 29 28 28 29 30 30 30 30 30 30 30 30 30 30 30 29 30 30 30 31 31 30 31
31 31 31 32 32 33 33 33 33 34 34 33 33 33 32 32 31 30 30 30 30 30 30 30 31 31 31 30 30 30 30 31 31 31 31 30 29 29 30 30 30 31 31
33 33 33 33 33 33 33 34 34 35 34 34 34 35 34 33 32 31 31 31 31 31 31 31 31 31 31 30 29 29 30 31 32 32 31 31 30 30 30 31 31 31 31
33 33 33 34 34 34 34 35 35 35 34 34 34 34 34 33 33 33 33 32 32 31 31 31 31 31 31 30 30 30 31 31 31 31 31 31 31 31 32 32 32 32 32
35 34 34 34 35 35 35 35 35 34 34 34 34 34 34 34 34 34 34 33 33 33 32 32 32 31 31 31 31 31 31 31 30 30 30 31 31 31 32 32 32 32 31
36 36 36 35 34 34 35 35 35 35 34 34 34 34 34 34 34 34 35 35 34 34 34 33 33 33 32 32 32 32 31 31 30 30 30 31 31 32 32 32 32 32 31
36 36 36 35 35 35 35 34 34 34 34 34 34 34 34 34 34 34 34 34 34 34 34 34 34 33 33 33 32 32 31 31 30 31 31 32 31 31 31 31 31 31 31
36 36 35 35 35 35 34 34 33 34 34 34 34 35 35 34 34 34 33 34 34 34 34 33 33 33 33 33 32 32 32 32 32 32 32 32 31 31 31 30 30 29 29
36 36 36 35 35 34 34 34 34 34 34 34 34 34 35 35 35 35 34 34 34 35 35 34 34 34 33 33 33 33 33 32 31 31 31 31 30 29 29 28 28 28 28
35 35 35 35 34 34 34 34 34 33 33 33 33 33 34 35 35 34 34 33 33 34 34 34 34 34 34 33 33 33 33 32 31 31 29 29 28 28 27 27 27 27 27
33 32 33 33 33 33 34 34 34 34 33 33 32 32 33 33 33 33 34 33 33 32 33 33 33 34 34 34 33 32 31 31 30 29 28 27 27 27 27 27 26 26 26
32 31 31 31 32 32 32 32 32 32 32 31 31 31 31 31 31 31 31 31 32 32 32 32 32 32 31 32 32 31 31 30 30 29 28 28 28 28 27 27 26 26 27
32 32 31 31 30 30 30 29 29 29 29 29 29 30 30 30 29 29 29 29 29 30 30 30 30 30 29 29 30 30 30 30 29 29 29 28 27 27 27 26 26 27 27
32 31 31 30 30 29 28 28 28 27 27 27 27 28 28 28 27 28 28 28 28 28 28 28 29 29 29 29 29 29 29 29 29 28 28 28 28 28 27 26 26 27 27
31 31 30 29 28 27 26 26 26 26 25 25 25 26 27 27 26 26 26 27 27 27 27 27 28 28 28 28 29 29 29 29 28 28 27 27 27 27 26 26 26 26 26
30 29 29 28 27 26 26 26 25 25 25 25 25 25 25 25 25 25 26 26 27 27 27 27 27 28 28 28 28 29 28 28 28 27 27 27 27 26 26 25 25 25 24
28 28 27 26 26 26 26 25 25 25 25 25 25 25 25 25 26 26 26 26 26 26 27 27 28 29 29 28 28 28 29 29 29 28 28 28 28 27 26 26 25 25 24
Wind_Direction
275 274 276 274 271 272 274 275 275 275 277 278 277 276 276 277 278 278 279 281 282 282 284 285 285 285 284 283 282 281 278 276 272 271 271 270 269 269 270 268 267 266 266
275 276 277 276 273 272 273 275 275 275 276 276 276 276 275 276 278 279 279 280 280 281 283 283 285 284 283 282 280 279 278 276 272 271 270 270 271 270 269 268 268 267 266
277 277 278 278 277 276 275 275 274 275 275 274 276 276 276 277 277 278 279 278 278 279 280 281 283 283 282 281 280 279 277 275 272 271 270 270 272 271 271 270 268 267 267
278 278 278 279 279 279 278 276 275 274 275 275 275 275 276 276 277 278 279 277 277 278 279 280 282 281 281 280 278 278 278 276 273 271 270 270 272 272 272 271 269 268 267
278 279 280 280 279 279 278 278 277 275 274 274 274 273 273 274 274 275 277 276 276 276 277 279 280 280 279 280 279 278 278 277 274 273 271 271 271 271 271 271 270 269 268
279 280 281 280 280 279 278 278 277 277 275 275 276 274 273 273 272 273 274 273 274 275 276 276 276 277 278 278 278 278 278 277 275 274 274 274 273 272 272 271 269 268 269
280 279 280 280 280 281 280 279 278 279 278 277 276 275 274 273 271 271 271 272 273 273 274 275 275 276 277 278 278 278 278 277 277 276 275 275 274 273 273 272 271 268 268
283 283 282 281 281 281 281 280 279 278 279 278 277 277 276 274 272 272 272 273 274 274 274 275 275 275 275 276 277 278 279 278 277 276 276 275 274 273 274 273 272 270 268
284 283 283 282 282 280 279 278 278 278 277 277 276 277 276 274 272 271 271 273 274 274 274 274 274 275 276 276 277 278 278 279 278 278 277 276 276 275 274 273 272 271 271
283 282 282 281 281 281 279 277 276 277 277 276 274 275 276 274 272 270 269 270 272 273 273 274 274 274 276 277 277 277 277 277 278 278 278 277 277 276 275 274 273 273 273
283 283 283 282 282 281 279 278 277 277 276 274 273 273 273 273 271 269 268 269 269 270 272 273 274 275 276 277 277 277 277 277 277 277 277 277 277 277 275 274 274 274 275
283 284 284 283 283 282 280 279 279 278 276 275 273 272 272 273 271 268 268 268 268 269 271 273 274 275 275 277 276 276 277 276 277 276 277 277 276 276 275 274 274 275 275
283 284 285 284 283 282 281 280 279 278 276 275 274 273 271 271 271 268 268 269 270 269 270 272 273 274 275 276 276 277 276 277 278 278 277 277 276 276 275 275 274 273 274
283 283 284 284 283 282 282 281 280 278 277 275 274 273 271 270 270 267 266 268 269 270 270 271 273 273 274 275 276 276 277 277 277 278 279 277 276 277 276 275 273 272 272
283 283 283 283 283 282 283 282 281 279 277 274 273 273 272 270 271 269 266 267 268 270 271 271 273 273 273 274 276 277 277 277 277 278 278 277 276 277 276 275 273 271 270
283 283 283 283 283 283 283 282 280 277 275 273 272 272 272 270 270 270 269 267 268 269 270 271 271 272 274 274 276 275 275 275 275 276 277 277 276 276 275 274 272 271 270
284 284 283 282 282 283 283 281 278 276 274 273 272 272 272 271 270 270 268 267 268 268 269 270 271 272 273 273 274 276 274 275 276 276 277 276 275 275 275 274 272 271 270
285 284 284 283 282 281 280 279 278 276 275 275 274 273 272 272 271 270 270 269 268 267 268 269 270 272 272 272 274 275 274 274 275 275 275 275 274 274 275 275 274 271 269
287 285 285 284 282 280 279 279 278 277 276 276 276 274 273 272 272 271 271 271 271 270 269 270 270 271 271 272 272 273 273 273 273 272 274 275 273 272 273 274 274 272 270
290 288 285 284 283 282 280 278 277 277 277 276 275 274 274 274 273 272 272 271 270 270 271 271 271 270 270 271 270 270 270 271 271 271 272 273 272 272 274 275 274 271 270
292 291 288 288 285 283 282 280 278 278 277 276 275 273 273 273 273 273 273 272 271 271 271 271 272 271 270 269 267 268 269 269 269 269 270 271 272 272 273 274 273 271 270
292 292 291 290 288 286 283 281 279 278 277 276 275 274 273 273 272 272 272 271 271 270 270 269 270 271 271 269 268 268 268 269 269 270 271 272 272 271 271 271 271 270 269
292 292 292 291 290 287 284 282 280 279 279 278 277 276 274 273 272 272 272 271 270 270 271 272 271 272 272 270 269 270 270 270 270 269 269 269 270 271 270 271 271 271 270
290 291 291 291 290 289 286 283 280 278 277 278 278 277 275 273 273 272 273 272 271 271 272 272 273 273 273 272 269 268 268 269 269 267 266 267 269 270 270 271 271 271 270
289 289 289 289 288 288 287 285 282 280 277 276 276 276 274 272 272 271 271 272 272 272 272 272 273 273 273 272 271 269 268 268 268 266 265 266 268 269 270 270 270 270 269
288 287 287 288 288 287 286 285 283 281 279 277 276 274 273 273 275 272 271 273 274 273 273 272 273 273 273 273 272 271 269 268 267 266 266 266 267 268 268 268 268 268 267
Height
5790 5789 5788 5787 5787 5786 5786 5785 5785 5784 5784 5783 5782 5782 5781 5780 5779 5779 5778 5777 5776 5775 5774 5773 5772 5771 5770 5769 5769 5768 5767 5767 5767 5767 5767 5767 5767 5768 5768 5768 5768 5769 5770
5784 5783 5782 5781 5781 5780 5780 5779 5779 5778 5777 5777 5776 5775 5775 5774 5773 5773 5772 5771 5770 5769 5768 5767 5766 5765 5764 5763 5763 5762 5761 5761 5761 5761 5761 5761 5761 5761 5761 5761 5762 5762 5763
5778 5777 5776 5775 5774 5773 5773 5772 5772 5771 5771 5770 5769 5769 5768 5767 5767 5766 5765 5765 5764 5763 5762 5761 5760 5759 5758 5757 5756 5756 5755 5754 5754 5754 5754 5754 5754 5754 5754 5754 5755 5755 5755
5771 5770 5769 5768 5767 5766 5766 5765 5764 5764 5763 5763 5762 5762 5761 5760 5760 5759 5758 5758 5757 5756 5755 5754 5753 5753 5752 5751 5750 5749 5749 5748 5747 5747 5747 5747 5747 5747 5747 5747 5747 5747 5747
5765 5764 5763 5761 5760 5759 5758 5757 5757 5756 5756 5755 5755 5754 5754 5753 5752 5751 5751 5750 5750 5749 5748 5747 5746 5745 5745 5744 5743 5743 5742 5741 5741 5740 5740 5740 5740 5740 5740 5740 5740 5739 5739
5757 5756 5755 5754 5753 5751 5750 5750 5749 5748 5747 5747 5746 5746 5745 5744 5744 5743 5743 5742 5742 5741 5740 5740 5739 5738 5737 5737 5736 5735 5735 5734 5734 5733 5733 5733 5732 5732 5732 5731 5731 5731 5732
5750 5749 5747 5746 5745 5744 5742 5741 5741 5740 5739 5738 5738 5737 5736 5736 5735 5735 5734 5734 5733 5733 5732 5731 5731 5730 5730 5729 5728 5728 5727 5726 5726 5726 5725 5725 5724 5724 5724 5723 5723 5723 5723
5742 5740 5739 5738 5736 5735 5734 5733 5732 5731 5730 5730 5729 5728 5728 5727 5726 5726 5725 5725 5724 5724 5724 5723 5723 5722 5722 5721 5720 5720 5719 5718 5718 5718 5717 5717 5716 5715 5715 5714 5714 5714 5714
5734 5732 5730 5729 5727 5726 5725 5724 5723 5722 5721 5721 5720 5719 5719 5718 5717 5717 5717 5716 5716 5716 5715 5714 5714 5714 5713 5712 5712 5711 5711 5710 5709 5708 5708 5708 5707 5706 5705 5705 5705 5705 5705
5725 5723 5721 5719 5718 5717 5716 5714 5713 5712 5712 5711 5711 5710 5710 5709 5708 5708 5707 5707 5707 5707 5706 5706 5705 5705 5704 5703 5703 5702 5702 5701 5700 5699 5699 5698 5697 5697 5696 5696 5695 5695 5695
5715 5713 5711 5710 5708 5707 5706 5704 5703 5702 5702 5701 5701 5700 5700 5699 5699 5698 5698 5698 5698 5697 5697 5697 5696 5695 5695 5694 5694 5693 5692 5692 5691 5690 5689 5689 5688 5687 5686 5686 5686 5686 5685
5706 5703 5701 5699 5698 5697 5695 5694 5693 5692 5691 5691 5690 5690 5689 5689 5688 5688 5688 5688 5688 5688 5688 5687 5687 5686 5686 5685 5684 5684 5683 5682 5681 5680 5680 5679 5678 5678 5677 5676 5676 5675 5675
5695 5693 5691 5689 5688 5686 5685 5683 5682 5681 5680 5680 5679 5679 5679 5678 5678 5677 5678 5678 5678 5678 5678 5678 5677 5677 5676 5675 5675 5674 5673 5672 5671 5671 5670 5669 5668 5667 5667 5666 5665 5665 5664
5684 5683 5681 5679 5677 5675 5674 5672 5671 5670 5669 5669 5668 5668 5668 5668 5667 5667 5667 5667 5667 5667 5668 5667 5667 5667 5666 5666 5665 5664 5663 5663 5662 5661 5660 5659 5658 5657 5656 5655 5655 5654 5654
5673 5671 5670 5668 5666 5665 5663 5661 5660 5659 5658 5658 5657 5657 5657 5657 5656 5656 5656 5656 5656 5657 5657 5657 5657 5656 5656 5656 5655 5654 5654 5653 5652 5651 5650 5649 5648 5647 5646 5645 5645 5644 5644
5661 5660 5658 5656 5655 5653 5652 5650 5649 5648 5647 5646 5646 5646 5646 5646 5645 5645 5645 5645 5645 5645 5646 5646 5646 5646 5646 5645 5645 5644 5643 5643 5642 5641 5640 5639 5638 5637 5636 5635 5634 5634 5634
5649 5648 5646 5644 5643 5641 5640 5639 5638 5637 5636 5635 5635 5635 5634 5634 5634 5634 5633 5633 5634 5634 5634 5635 5635 5635 5635 5634 5634 5633 5633 5632 5632 5631 5630 5629 5628 5628 5627 5626 5625 5624 5624
5637 5636 5634 5632 5631 5629 5628 5627 5626 5625 5625 5624 5623 5623 5623 5623 5623 5623 5622 5622 5622 5623 5623 5623 5623 5624 5623 5623 5623 5623 5622 5622 5621 5620 5620 5619 5618 5618 5617 5616 5615 5615 5615
5625 5623 5622 5620 5619 5618 5616 5615 5614 5613 5613 5613 5612 5612 5611 5611 5611 5611 5611 5611 5611 5611 5611 5611 5612 5612 5612 5612 5612 5612 5611 5611 5611 5610 5610 5609 5609 5608 5608 5607 5606 5606 5606
5615 5613 5611 5609 5608 5607 5605 5604 5603 5602 5601 5601 5601 5600 5600 5600 5600 5600 5599 5600 5600 5600 5600 5600 5600 5601 5601 5601 5601 5601 5601 5601 5601 5600 5600 5600 5600 5599 5599 5598 5598 5597 5597
5605 5603 5601 5599 5597 5596 5595 5593 5592 5591 5590 5590 5590 5589 5589 5589 5589 5589 5589 5589 5589 5589 5589 5589 5589 5589 5589 5590 5590 5590 5591 5591 5591 5591 5591 5591 5591 5590 5590 5589 5589 5589 5589
5595 5593 5591 5589 5587 5586 5584 5583 5582 5581 5580 5580 5579 5579 5579 5579 5579 5579 5579 5579 5579 5579 5579 5579 5579 5579 5579 5580 5580 5580 5581 5581 5581 5582 5582 5582 5582 5582 5581 5581 5581 5580 5580
5585 5583 5581 5579 5577 5576 5574 5573 5572 5572 5571 5570 5569 5569 5569 5569 5569 5570 5569 5569 5569 5569 5569 5570 5570 5570 5570 5570 5570 5570 5571 5571 5572 5572 5572 5572 5572 5573 5573 5572 5572 5572 5572
5576 5574 5572 5570 5568 5566 5565 5564 5563 5563 5562 5561 5561 5561 5561 5560 5560 5560 5560 5560 5560 5560 5560 5560 5560 5560 5560 5560 5560 5560 5561 5561 5562 5562 5563 5563 5563 5564 5564 5564 5564 5563 5563
5566 5565 5563 5561 5560 5558 5557 5555 5555 5554 5553 5553 5552 5552 5552 5552 5551 5552 5551 5551 5551 5551 5551 5551 5551 5551 5551 5551 5551 5551 5551 5551 5552 5552 5553 5554 5554 5555 5555 5555 5555 5555 5555
5557 5556 5554 5553 5551 5550 5548 5547 5546 5545 5545 5544 5544 5544 5543 5543 5543 5543 5542 5542 5542 5542 5542 5542 5541 5541 5541 5541 5541 5541 5541 5542 5542 5542 5543 5544 5545 5546 5546 5546 5547 5547 5547